Home   Weather   Hollywood   Past weeks

Flag for USA Past Weather in Hollywood, California, USA — Yesterday and Last 2 Weeks

Now
79 °F

Sunny.


Feels Like: 77 °F
Forecast: 59 / 81 °F
Wind: 9 mph from South

Location: Bob Hope Airport

Current Time: Apr 29, 2017 at 6:18:35 pm

Latest Report: Apr 29, 2017 at 4:53 pm


Visibility: 10 mi

Pressure: 29.93 "Hg

Humidity: 10%

Dew Point: 17 °F

Location of HollywoodLocation

Past Weather in Hollywood — Graph

°F

Hollywood Temperature Yesterday

Maximum temperature yesterday: 80 °F (at 1:53 pm)
Minimum temperature yesterday: 64 °F (at 6:53 am)
Average temperature yesterday: 71 °F

High & Low Weather Summary for the Past Weeks

 TemperatureHumidityPressure
High92 °F (Apr 21, 2:53 pm)90% (Apr 18, 10:53 pm)30.12 "Hg (Apr 18, 10:53 pm)
Low49 °F (Apr 15, 5:53 am)6% (Apr 29, 11:53 am)29.68 "Hg (Apr 27, 6:53 pm)
Average68 °F42%29.90 "Hg
* Reported Apr 14 4:53 pm — Apr 29 4:53 pm, Hollywood, Weather by CustomWeather, © 2017

Note: Actual official high and low records may vary slightly from our data, if they occured in-between our weather recording intervals... More about our weather records

Advertising

Hollywood Weather History for the Previous 24 Hours

Scroll right to see more
 ConditionsComfort  
Time TempWeatherWind HumidityBarometerVisibility
4:53 pm
Sat, Apr 29
79 °FSunny.9 mph10%29.93 "Hg10 mi
3:53 pm80 °FSunny.13 mph8%29.93 "Hg10 mi
2:53 pm81 °FSunny.15 mph9%29.94 "Hg10 mi
2:18 pm81 °FSunny.12 mph8%29.98 "Hg10 mi
1:53 pm83 °FSunny.16 mph6%29.93 "Hg10 mi
12:53 pm81 °FSunny.13 mph6%29.95 "Hg10 mi
11:53 am79 °FSunny.21 mph6%29.98 "Hg10 mi
10:53 am77 °FSunny.14 mph7%29.98 "Hg10 mi
9:53 am74 °FSunny.12 mph7%29.98 "Hg10 mi
8:53 am71 °FSunny.8 mph9%29.97 "Hg10 mi
7:53 am69 °FSunny.10 mph9%29.97 "Hg10 mi
6:53 am66 °FSunny.5 mph11%29.94 "Hg10 mi
5:53 am67 °FClear.12 mph10%29.92 "Hg10 mi
4:53 am68 °FClear.18 mph9%29.89 "Hg10 mi
3:53 am68 °FClear.23 mph10%29.87 "Hg10 mi
2:53 am69 °FClear.16 mph10%29.87 "Hg10 mi
1:53 am70 °FClear.17 mph9%29.86 "Hg10 mi
11:53 pm
Fri, Apr 28
66 °FClear.21 mph23%29.84 "Hg10 mi
10:53 pm68 °FClear.21 mph21%29.83 "Hg10 mi
9:53 pm69 °FClear.26 mph18%29.79 "Hg10 mi
8:53 pm71 °FClear.24 mph17%29.77 "Hg10 mi
7:53 pm72 °FClear.20 mph15%29.75 "Hg10 mi
6:53 pm75 °FSunny.24 mph12%29.73 "Hg10 mi
Weather by CustomWeather, © 2017

See weather overviewHow to use our weather pages